QPF
0.00 0.00 0.00 0.00 0.00 0.00 0.00 0.00 0.00 0.00 0.01 0.01 0.02 0.01 0.01 0.01 0.01 0.00 0.02 0.02 0.04 0.01 0.02 0.02 0.17 0.18 0.18 0.16 0.24 0.16 0.03 0.17 0.10 0.10 0.12 0.06 0.02 0.06 0.00 0.00 0.00 0.00
0.00 0.00 0.00 0.00 0.00 0.00 0.00 0.00 0.01 0.01 0.02 0.02 0.01 0.01 0.01 0.01 0.01 0.01 0.01 0.01 0.02 0.04 0.02 0.06 0.12 0.11 0.16 0.16 0.15 0.26 0.18 0.08 0.15 0.10 0.21 0.14 0.09 0.12 0.06 0.05 0.00 0.00
0.00 0.00 0.00 0.00 0.00 0.00 0.00 0.00 0.00 0.00 0.00 0.00 0.00 0.01 0.01 0.00 0.01 0.01 0.01 0.00 0.02 0.03 0.04 0.08 0.12 0.10 0.14 0.19 0.28 0.28 0.23 0.20 0.11 0.14 0.17 0.17 0.20 0.14 0.06 0.05 0.08 0.01
0.00 0.00 0.00 0.00 0.00 0.00 0.00 0.00 0.00 0.00 0.00 0.00 0.00 0.01 0.00 0.00 0.00 0.01 0.02 0.02 0.02 0.01 0.02 0.09 0.12 0.16 0.31 0.23 0.26 0.72 0.48 0.34 0.37 0.38 0.30 0.22 0.14 0.09 0.07 0.06 0.05 0.05
0.00 0.00 0.00 0.00 0.00 0.00 0.00 0.00 0.00 0.00 0.00 0.00 0.00 0.00 0.00 0.00 0.00 0.00 0.00 0.00 0.01 0.02 0.07 0.15 0.26 0.23 0.18 0.30 0.39 0.56 0.64 0.20 0.34 0.27 0.30 0.30 0.17 0.21 0.12 0.15 0.21 0.07
0.00 0.00 0.00 0.00 0.00 0.00 0.00 0.00 0.00 0.00 0.00 0.00 0.00 0.00 0.00 0.00 0.00 0.00 0.00 0.00 0.00 0.00 0.01 0.01 0.03 0.07 0.14 0.13 0.25 0.20 0.55 0.53 0.34 0.29 0.44 0.29 0.19 0.10 0.14 0.20 0.17 0.10
0.00 0.00 0.00 0.00 0.00 0.00 0.00 0.00 0.00 0.00 0.00 0.00 0.00 0.00 0.00 0.00 0.00 0.00 0.00 0.00 0.00 0.00 0.00 0.01 0.01 0.01 0.04 0.17 0.32 0.31 0.18 0.17 0.14 0.10 0.18 0.34 0.34 0.30 0.19 0.17 0.14 0.21
0.00 0.00 0.00 0.00 0.00 0.00 0.00 0.00 0.00 0.00 0.00 0.00 0.00 0.00 0.00 0.00 0.00 0.00 0.00 0.00 0.00 0.00 0.01 0.01 0.01 0.01 0.01 0.04 0.22 0.17 0.12 0.14 0.08 0.09 0.12 0.32 0.28 0.32 0.36 0.23 0.24 0.21
0.00 0.00 0.00 0.00 0.00 0.00 0.00 0.00 0.00 0.00 0.00 0.00 0.00 0.00 0.00 0.00 0.00 0.00 0.00 0.00 0.00 0.00 0.00 0.01 0.01 0.02 0.02 0.06 0.06 0.07 0.13 0.28 0.25 0.37 0.20 0.21 0.23 0.22 0.15 0.26 0.35 0.30
0.00 0.00 0.00 0.00 0.00 0.00 0.00 0.00 0.00 0.00 0.00 0.00 0.00 0.00 0.00 0.00 0.00 0.00 0.00 0.00 0.00 0.00 0.00 0.00 0.01 0.01 0.10 0.06 0.06 0.14 0.37 0.42 0.40 0.32 0.28 0.31 0.23 0.25 0.31 0.31 0.16 0.12
0.00 0.00 0.00 0.00 0.00 0.00 0.00 0.00 0.00 0.00 0.00 0.00 0.00 0.00 0.00 0.00 0.00 0.00 0.00 0.00 0.00 0.00 0.00 0.00 0.01 0.01 0.04 0.02 0.06 0.07 0.26 0.19 0.33 0.25 0.27 0.23 0.23 0.16 0.15 0.30 0.18 0.30
0.00 0.00 0.00 0.00 0.00 0.00 0.00 0.00 0.00 0.00 0.00 0.00 0.00 0.00 0.00 0.00 0.00 0.00 0.00 0.00 0.00 0.00 0.00 0.01 0.01 0.01 0.02 0.03 0.07 0.21 0.33 0.20 0.20 0.15 0.08 0.10 0.19 0.26 0.19 0.16 0.21 0.32
0.00 0.00 0.00 0.00 0.00 0.00 0.00 0.00 0.00 0.00 0.00 0.00 0.00 0.00 0.00 0.00 0.00 0.00 0.00 0.00 0.00 0.00 0.00 0.01 0.01 0.01 0.05 0.03 0.08 0.16 0.15 0.11 0.07 0.03 0.03 0.02 0.04 0.13 0.18 0.16 0.16 0.20
0.00 0.00 0.00 0.00 0.00 0.00 0.00 0.00 0.00 0.00 0.00 0.00 0.00 0.00 0.00 0.00 0.00 0.00 0.00 0.00 0.00 0.00 0.00 0.00 0.01 0.02 0.04 0.10 0.11 0.08 0.07 0.02 0.03 0.01 0.01 0.02 0.03 0.06 0.08 0.17 0.20 0.25
0.00 0.00 0.00 0.00 0.00 0.00 0.00 0.00 0.00 0.00 0.00 0.00 0.00 0.00 0.00 0.00 0.00 0.00 0.00 0.00 0.00 0.00 0.01 0.01 0.01 0.04 0.12 0.16 0.14 0.08 0.02 0.02 0.01 0.02 0.02 0.04 0.03 0.04 0.04 0.04 0.03 0.04
0.00 0.00 0.00 0.00 0.00 0.00 0.00 0.00 0.00 0.00 0.00 0.00 0.00 0.00 0.00 0.00 0.00 0.00 0.00 0.00 0.00 0.00 0.00 0.01 0.04 0.20 0.09 0.11 0.02 0.04 0.01 0.01 0.01 0.03 0.04 0.04 0.04 0.07 0.17 0.27 0.14 0.09
0.00 0.00 0.00 0.00 0.00 0.00 0.00 0.00 0.00 0.00 0.00 0.00 0.00 0.00 0.00 0.00 0.00 0.00 0.00 0.00 0.00 0.00 0.00 0.04 0.11 0.12 0.06 0.02 0.01 0.00 0.00 0.01 0.01 0.02 0.02 0.02 0.02 0.02 0.02 0.03 0.06 0.09
0.00 0.00 0.00 0.00 0.00 0.00 0.00 0.00 0.00 0.00 0.00 0.00 0.00 0.00 0.00 0.00 0.00 0.00 0.00 0.00 0.00 0.01 0.02 0.04 0.14 0.05 0.09 0.00 0.00 0.00 0.01 0.03 0.02 0.01 0.08 0.05 0.05 0.03 0.02 0.03 0.03 0.05
0.00 0.00 0.00 0.00 0.00 0.00 0.00 0.00 0.00 0.00 0.00 0.00 0.00 0.00 0.00 0.00 0.00 0.00 0.00 0.00 0.01 0.01 0.01 0.01 0.05 0.08 0.01 0.00 0.00 0.00 0.00 0.02 0.03 0.04 0.05 0.06 0.15 0.10 0.04 0.05 0.08 0.12
0.00 0.00 0.00 0.00 0.00 0.00 0.00 0.00 0.00 0.00 0.00 0.00 0.00 0.00 0.00 0.00 0.00 0.00 0.00 0.00 0.01 0.01 0.05 0.01 0.02 0.05 0.00 0.00 0.00 0.00 0.00 0.01 0.01 0.03 0.06 0.07 0.12 0.14 0.08 0.11 0.15 0.09
0.00 0.00 0.00 0.00 0.00 0.00 0.00 0.00 0.00 0.00 0.00 0.00 0.00 0.00 0.00 0.00 0.00 0.00 0.00 0.01 0.01 0.02 0.02 0.04 0.01 0.00 0.00 0.00 0.00 0.00 0.00 0.01 0.01 0.02 0.05 0.06 0.09 0.13 0.20 0.30 0.22 0.21
0.00 0.00 0.00 0.00 0.00 0.00 0.00 0.00 0.00 0.00 0.00 0.00 0.00 0.00 0.00 0.00 0.01 0.00 0.00 0.00 0.00 0.01 0.01 0.01 0.01 0.01 0.00 0.00 0.00 0.02 0.00 0.00 0.01 0.02 0.03 0.03 0.04 0.08 0.17 0.30 0.36 0.26
0.00 0.00 0.00 0.00 0.00 0.00 0.00 0.00 0.00 0.00 0.00 0.00 0.00 0.00 0.00 0.00 0.00 0.00 0.00 0.00 0.00 0.00 0.01 0.01 0.01 0.01 0.00 0.01 0.05 0.00 0.00 0.01 0.02 0.02 0.02 0.03 0.03 0.06 0.13 0.16 0.25 0.33
0.00 0.00 0.00 0.00 0.00 0.00 0.00 0.00 0.00 0.00 0.00 0.00 0.00 0.00 0.00 0.00 0.00 0.00 0.00 0.00 0.00 0.00 0.01 0.01 0.01 0.01 0.02 0.03 0.01 0.00 0.00 0.00 0.01 0.02 0.03 0.02 0.03 0.09 0.17 0.19 0.26 0.50
0.00 0.00 0.00 0.00 0.00 0.00 0.00 0.00 0.00 0.00 0.00 0.00 0.00 0.00 0.00 0.00 0.00 0.00 0.00 0.00 0.01 0.01 0.00 0.01 0.03 0.03 0.05 0.11 0.01 0.00 0.00 0.00 0.02 0.03 0.02 0.02 0.05 0.08 0.11 0.14 0.21 0.19
0.00 0.00 0.00 0.00 0.00 0.00 0.00 0.00 0.00 0.00 0.00 0.00 0.00 0.00 0.00 0.00 0.00 0.00 0.00 0.00 0.00 0.00 0.01 0.03 0.13 0.11 0.07 0.01 0.00 0.00 0.00 0.00 0.00 0.01 0.02 0.02 0.09 0.13 0.02 0.04 0.08 0.15
MSLP
1019.06 1019.02 1018.98 1018.86 1018.74 1018.62 1018.54 1018.54 1018.38 1018.26 1018.10 1017.90 1017.86 1017.74 1017.62 1017.42 1017.14 1017.06 1016.94 1016.82 1016.70 1016.62 1016.46 1016.34 1016.22 1016.18 1016.14 1016.10 1016.06 1016.10 1016.14 1016.10 1015.94 1015.98 1016.02 1016.02 1015.98 1015.90 1015.82 1015.74 1015.70 1015.66
1019.14 1019.06 1018.94 1018.82 1018.74 1018.54 1018.42 1018.38 1018.38 1018.26 1018.10 1017.94 1017.78 1017.70 1017.50 1017.34 1017.14 1017.02 1016.94 1016.82 1016.66 1016.54 1016.42 1016.34 1016.22 1016.10 1016.02 1016.02 1015.94 1015.98 1016.02 1016.02 1016.02 1015.82 1015.86 1015.86 1015.82 1015.90 1015.74 1015.42 1015.66 1015.66
1019.22 1019.10 1019.02 1018.94 1018.86 1018.66 1018.50 1018.38 1018.34 1018.22 1018.10 1017.94 1017.78 1017.70 1017.62 1017.34 1017.18 1017.02 1016.86 1016.70 1016.58 1016.42 1016.34 1016.22 1016.14 1016.06 1015.98 1015.82 1015.82 1015.86 1015.94 1015.90 1015.94 1015.82 1015.78 1015.70 1015.70 1015.78 1015.66 1015.54 1015.26 1015.42
1019.30 1019.18 1019.14 1018.98 1018.82 1018.70 1018.54 1018.50 1018.42 1018.22 1018.02 1017.98 1017.94 1017.74 1017.58 1017.42 1017.22 1017.10 1016.90 1016.66 1016.50 1016.34 1016.18 1016.06 1015.94 1015.90 1015.82 1015.66 1015.54 1015.74 1015.70 1015.78 1015.70 1015.66 1015.66 1015.50 1015.30 1015.50 1015.62 1015.42 1015.34 1015.18
1019.34 1019.22 1019.14 1019.02 1018.82 1018.70 1018.70 1018.70 1018.54 1018.34 1018.18 1018.06 1017.90 1017.74 1017.58 1017.34 1017.22 1017.10 1016.94 1016.74 1016.62 1016.46 1016.18 1015.90 1015.74 1015.66 1015.62 1015.54 1015.94 1016.54 1016.06 1015.86 1015.62 1015.38 1015.26 1015.18 1015.14 1015.42 1015.74 1015.42 1015.10 1015.02
1019.34 1019.26 1019.10 1019.02 1018.90 1018.90 1018.90 1018.78 1018.54 1018.42 1018.30 1018.18 1018.02 1017.74 1017.50 1017.22 1017.10 1016.98 1016.78 1016.74 1016.66 1016.54 1016.26 1015.86 1015.66 1015.54 1015.42 1015.46 1015.62 1015.86 1015.94 1015.94 1015.66 1015.38 1015.42 1015.42 1015.22 1015.06 1015.02 1015.30 1015.26 1014.94
1019.42 1019.26 1019.14 1018.98 1018.98 1018.94 1018.94 1018.82 1018.62 1018.34 1018.14 1018.02 1017.86 1017.70 1017.38 1017.18 1017.06 1016.82 1016.58 1016.50 1016.46 1016.46 1016.30 1016.02 1015.70 1015.46 1015.34 1015.38 1015.46 1015.54 1015.54 1015.54 1015.30 1015.18 1015.22 1015.22 1015.18 1014.94 1014.78 1014.70 1014.66 1014.54
1019.46 1019.26 1019.10 1018.98 1018.98 1018.94 1018.90 1018.78 1018.54 1018.26 1017.98 1017.86 1017.86 1017.58 1017.34 1017.18 1016.98 1016.82 1016.66 1016.50 1016.46 1016.34 1016.22 1016.02 1015.78 1015.46 1015.26 1015.30 1015.42 1015.54 1015.46 1015.46 1015.30 1015.06 1015.02 1014.98 1015.10 1015.18 1014.90 1014.54 1014.46 1014.54
1019.46 1019.34 1019.18 1019.02 1018.98 1018.90 1018.74 1018.50 1018.38 1018.22 1017.94 1017.86 1017.70 1017.50 1017.30 1017.14 1017.02 1016.94 1016.82 1016.66 1016.54 1016.34 1016.10 1015.98 1015.82 1015.58 1015.34 1015.26 1015.26 1015.18 1015.26 1015.38 1015.30 1014.94 1014.82 1014.74 1014.74 1014.78 1014.58 1014.42 1014.38 1014.30
1019.58 1019.38 1019.22 1019.14 1019.06 1018.78 1018.66 1018.46 1018.30 1018.18 1017.98 1017.86 1017.70 1017.46 1017.30 1017.18 1017.06 1016.94 1016.86 1016.74 1016.58 1016.34 1016.10 1015.86 1015.66 1015.54 1015.38 1015.18 1015.18 1015.38 1015.70 1016.18 1016.10 1015.14 1014.78 1014.70 1014.66 1014.54 1014.38 1014.38 1014.22 1013.98
1019.62 1019.38 1019.26 1019.14 1018.94 1018.70 1018.54 1018.34 1018.22 1018.10 1017.98 1017.86 1017.70 1017.46 1017.30 1017.18 1017.10 1016.90 1016.78 1016.62 1016.50 1016.38 1016.22 1015.90 1015.58 1015.46 1015.34 1015.38 1015.58 1015.70 1015.86 1015.98 1015.94 1015.38 1014.82 1014.50 1014.30 1014.22 1014.10 1013.98 1013.86 1013.90
1019.42 1019.22 1019.10 1018.90 1018.74 1018.54 1018.42 1018.22 1018.06 1017.94 1017.86 1017.70 1017.50 1017.42 1017.26 1017.06 1016.90 1016.70 1016.58 1016.54 1016.50 1016.30 1016.14 1015.94 1015.62 1015.46 1015.46 1015.66 1015.62 1015.54 1015.54 1015.46 1015.26 1015.02 1015.02 1014.58 1014.18 1013.98 1013.82 1013.70 1013.58 1013.34
1019.18 1019.02 1018.94 1018.86 1018.70 1018.54 1018.38 1018.18 1018.06 1017.94 1017.82 1017.66 1017.46 1017.42 1017.30 1017.06 1016.86 1016.78 1016.66 1016.62 1016.50 1016.30 1016.10 1015.86 1015.62 1015.38 1015.54 1015.70 1015.74 1015.54 1015.42 1015.22 1015.02 1014.70 1014.54 1014.22 1013.98 1013.78 1013.66 1013.46 1013.30 1013.10
1019.02 1018.86 1018.82 1018.82 1018.66 1018.50 1018.42 1018.34 1018.22 1018.02 1017.86 1017.74 1017.58 1017.46 1017.30 1017.10 1017.02 1016.94 1016.78 1016.62 1016.42 1016.22 1015.98 1015.70 1015.50 1015.42 1015.70 1015.86 1015.78 1015.58 1015.34 1015.14 1014.86 1014.66 1014.38 1014.10 1013.82 1013.54 1013.38 1013.30 1013.14 1012.98
1018.94 1018.82 1018.82 1018.78 1018.70 1018.58 1018.50 1018.42 1018.30 1018.14 1017.98 1017.82 1017.70 1017.50 1017.30 1017.18 1017.06 1016.98 1016.90 1016.70 1016.46 1016.30 1016.06 1015.82 1015.70 1015.78 1015.82 1015.82 1015.78 1015.62 1015.42 1015.10 1014.82 1014.54 1014.30 1014.06 1013.82 1013.54 1013.26 1013.18 1013.10 1012.98
1018.98 1018.94 1018.90 1018.86 1018.74 1018.70 1018.58 1018.50 1018.34 1018.18 1018.06 1017.90 1017.70 1017.62 1017.46 1017.30 1017.18 1017.10 1016.94 1016.74 1016.54 1016.30 1016.10 1015.94 1015.82 1015.86 1015.90 1015.94 1015.94 1015.94 1015.70 1015.26 1014.94 1014.66 1014.34 1014.02 1013.82 1013.54 1013.22 1013.14 1013.10 1012.98
1019.10 1019.10 1019.02 1018.86 1018.78 1018.74 1018.66 1018.50 1018.38 1018.26 1018.14 1017.98 1017.86 1017.78 1017.62 1017.38 1017.26 1017.10 1016.94 1016.82 1016.62 1016.34 1016.10 1015.94 1015.78 1015.82 1016.02 1016.06 1015.90 1015.90 1015.94 1015.54 1015.14 1014.78 1014.38 1014.02 1013.78 1013.58 1013.38 1013.10 1013.10 1013.06
1019.14 1019.10 1019.02 1018.98 1018.94 1018.86 1018.78 1018.70 1018.54 1018.42 1018.26 1018.14 1018.02 1017.86 1017.66 1017.46 1017.34 1017.18 1016.98 1016.78 1016.54 1016.26 1016.02 1015.82 1015.62 1015.74 1015.74 1015.78 1015.82 1015.94 1015.98 1015.74 1015.34 1014.86 1014.42 1014.14 1013.90 1013.70 1013.46 1013.18 1013.06 1013.06
1019.14 1019.14 1019.06 1019.02 1019.02 1019.10 1019.10 1019.02 1018.86 1018.66 1018.50 1018.38 1018.22 1017.94 1017.70 1017.58 1017.42 1017.18 1016.94 1016.66 1016.42 1016.18 1015.90 1015.62 1015.42 1015.50 1015.54 1015.58 1015.66 1015.78 1015.78 1015.66 1015.22 1014.78 1014.42 1014.14 1013.98 1013.70 1013.46 1013.22 1013.02 1013.02
1019.22 1019.26 1019.30 1019.22 1019.14 1019.06 1019.06 1018.98 1018.86 1018.82 1018.66 1018.46 1018.22 1017.94 1017.82 1017.62 1017.38 1017.10 1016.78 1016.50 1016.26 1015.98 1015.70 1015.46 1015.30 1015.26 1015.42 1015.82 1016.10 1015.94 1015.74 1015.62 1014.98 1014.50 1014.10 1013.82 1013.66 1013.46 1013.30 1013.18 1013.06 1012.90
1019.42 1019.42 1019.46 1019.42 1019.34 1019.30 1019.26 1019.14 1019.02 1018.90 1018.70 1018.46 1018.26 1018.06 1017.86 1017.62 1017.34 1017.06 1016.66 1016.38 1016.14 1015.94 1015.70 1015.46 1015.22 1015.30 1015.62 1015.86 1015.86 1015.74 1015.46 1015.06 1014.58 1014.14 1013.82 1013.46 1013.22 1013.10 1012.98 1012.94 1012.86 1012.78
1019.42 1019.46 1019.46 1019.42 1019.38 1019.34 1019.30 1019.18 1019.14 1018.98 1018.78 1018.46 1018.26 1018.06 1017.78 1017.54 1017.26 1016.94 1016.58 1016.30 1016.10 1015.90 1015.74 1015.54 1015.22 1015.62 1016.18 1016.30 1016.14 1015.70 1015.34 1014.86 1014.42 1014.10 1013.74 1013.34 1012.98 1012.74 1012.70 1012.70 1012.62 1012.58
1019.42 1019.50 1019.58 1019.58 1019.54 1019.46 1019.38 1019.26 1019.14 1018.94 1018.70 1018.42 1018.26 1017.98 1017.78 1017.50 1017.22 1016.90 1016.54 1016.30 1016.10 1015.86 1015.66 1015.54 1015.38 1016.06 1015.94 1015.94 1015.86 1015.62 1015.30 1014.78 1014.42 1014.06 1013.66 1013.30 1012.98 1012.74 1012.66 1012.46 1012.38 1012.34
1019.46 1019.50 1019.54 1019.54 1019.50 1019.38 1019.34 1019.18 1018.98 1018.78 1018.62 1018.38 1018.18 1017.94 1017.66 1017.34 1017.02 1016.78 1016.54 1016.34 1016.10 1015.78 1015.62 1015.54 1015.74 1016.06 1015.94 1015.90 1015.82 1015.54 1015.30 1014.94 1014.54 1014.22 1013.82 1013.46 1012.98 1012.86 1012.78 1012.50 1012.18 1012.06
1019.30 1019.34 1019.46 1019.54 1019.50 1019.38 1019.22 1019.02 1018.82 1018.58 1018.34 1018.18 1018.02 1017.78 1017.46 1017.10 1016.86 1016.74 1016.50 1016.26 1015.98 1015.70 1015.50 1015.70 1015.78 1015.50 1015.98 1016.02 1015.74 1015.66 1015.38 1015.02 1014.62 1014.30 1014.02 1013.66 1013.38 1013.06 1012.74 1012.34 1011.98 1011.90
1019.14 1019.26 1019.38 1019.50 1019.46 1019.34 1019.14 1018.90 1018.62 1018.34 1018.14 1017.98 1017.78 1017.54 1017.26 1016.98 1016.78 1016.54 1016.34 1016.10 1015.82 1015.62 1015.46 1015.62 1015.58 1016.06 1016.34 1015.86 1015.70 1015.50 1015.46 1015.22 1014.70 1014.38 1014.26 1014.06 1013.78 1013.46 1012.94 1012.26 1012.02 1012.06
Thickness
5603 5602 5600 5599 5597 5596 5595 5592 5591 5589 5588 5586 5584 5582 5582 5581 5581 5581 5580 5580 5579 5580 5582 5584 5586 5587 5589 5590 5591 5593 5594 5595 5597 5598 5599 5599 5601 5602 5604 5607 5607 5608
5601 5599 5598 5596 5595 5594 5593 5591 5588 5587 5585 5583 5582 5579 5578 5577 5577 5577 5576 5576 5575 5574 5575 5577 5579 5581 5582 5584 5585 5587 5588 5589 5592 5593 5593 5595 5595 5596 5599 5601 5602 5602
5597 5596 5595 5593 5592 5591 5590 5588 5586 5584 5583 5581 5579 5577 5575 5574 5573 5572 5572 5572 5572 5572 5571 5571 5573 5576 5577 5579 5581 5582 5583 5583 5584 5586 5587 5589 5590 5590 5593 5596 5598 5598
5594 5593 5592 5590 5589 5588 5587 5585 5583 5581 5580 5578 5576 5574 5572 5571 5569 5568 5568 5568 5568 5569 5569 5568 5568 5570 5572 5575 5576 5575 5576 5577 5578 5580 5582 5585 5587 5586 5587 5590 5594 5596
5592 5590 5589 5587 5586 5585 5582 5581 5579 5578 5577 5575 5573 5572 5570 5569 5566 5565 5564 5563 5563 5562 5564 5565 5565 5565 5567 5569 5569 5566 5566 5568 5571 5574 5577 5581 5582 5582 5582 5585 5588 5592
5589 5587 5586 5584 5583 5581 5578 5577 5576 5575 5573 5572 5570 5569 5567 5567 5565 5563 5562 5560 5558 5557 5558 5560 5561 5562 5562 5563 5563 5560 5560 5562 5565 5569 5572 5575 5576 5577 5579 5580 5583 5586
5586 5585 5584 5582 5579 5577 5575 5573 5573 5572 5571 5570 5568 5567 5566 5565 5563 5562 5560 5558 5556 5554 5554 5555 5556 5558 5558 5557 5557 5556 5557 5558 5561 5564 5566 5568 5570 5571 5574 5577 5580 5583
5583 5582 5581 5580 5577 5574 5572 5571 5569 5569 5569 5567 5566 5564 5563 5563 5560 5559 5557 5556 5554 5552 5551 5551 5551 5552 5553 5552 5551 5551 5553 5554 5556 5559 5561 5563 5563 5563 5566 5570 5574 5577
5580 5579 5577 5576 5574 5572 5570 5570 5568 5567 5566 5564 5563 5562 5561 5560 5557 5555 5553 5551 5550 5549 5548 5548 5547 5547 5547 5548 5548 5547 5548 5548 5549 5553 5555 5557 5558 5559 5561 5564 5567 5570
5575 5575 5573 5572 5571 5570 5569 5567 5565 5564 5563 5561 5560 5559 5558 5556 5554 5552 5550 5548 5546 5545 5545 5545 5544 5543 5543 5543 5543 5542 5541 5537 5538 5544 5548 5549 5552 5555 5557 5559 5561 5564
5572 5571 5570 5569 5568 5567 5566 5565 5563 5562 5560 5558 5556 5556 5554 5553 5551 5549 5548 5546 5544 5542 5540 5541 5541 5540 5538 5537 5536 5535 5533 5530 5530 5535 5540 5543 5547 5550 5552 5554 5557 5559
5570 5569 5568 5567 5566 5565 5564 5563 5561 5559 5557 5556 5554 5552 5551 5549 5548 5547 5545 5542 5540 5539 5537 5536 5537 5536 5534 5531 5530 5530 5529 5527 5528 5530 5534 5537 5542 5545 5547 5550 5553 5556
5568 5567 5565 5564 5562 5561 5560 5559 5557 5556 5554 5553 5551 5549 5547 5546 5545 5542 5541 5539 5536 5535 5533 5533 5533 5532 5530 5526 5524 5525 5525 5525 5526 5528 5530 5532 5535 5539 5542 5545 5548 5551
5564 5564 5562 5560 5558 5557 5556 5554 5553 5551 5550 5548 5547 5545 5543 5542 5540 5538 5536 5534 5532 5531 5530 5529 5528 5526 5524 5521 5519 5520 5520 5521 5523 5524 5526 5528 5530 5533 5537 5539 5542 5546
5561 5559 5557 5555 5554 5553 5551 5549 5548 5546 5545 5543 5542 5540 5539 5537 5535 5533 5530 5529 5528 5526 5525 5524 5522 5520 5518 5516 5515 5515 5515 5516 5518 5520 5521 5523 5526 5528 5531 5534 5537 5539
5556 5554 5552 5551 5549 5547 5545 5544 5543 5541 5540 5539 5537 5536 5534 5532 5530 5527 5526 5524 5522 5521 5520 5518 5516 5514 5511 5510 5509 5509 5509 5510 5512 5514 5516 5518 5520 5522 5525 5528 5530 5532
5552 5549 5548 5546 5545 5543 5541 5539 5538 5537 5535 5534 5532 5530 5529 5527 5525 5522 5520 5518 5517 5516 5515 5513 5512 5509 5506 5504 5503 5502 5502 5504 5506 5508 5510 5513 5514 5516 5519 5522 5525 5526
5548 5545 5544 5542 5540 5538 5535 5534 5533 5531 5530 5528 5527 5525 5523 5521 5518 5516 5515 5513 5511 5511 5510 5508 5507 5504 5502 5500 5499 5497 5496 5497 5499 5501 5504 5506 5508 5510 5512 5516 5519 5521
5544 5542 5540 5538 5536 5533 5530 5529 5527 5526 5524 5522 5520 5519 5516 5514 5512 5510 5509 5507 5506 5506 5505 5504 5502 5500 5498 5495 5493 5492 5490 5491 5493 5496 5499 5500 5502 5504 5506 5509 5513 5515
5540 5538 5535 5533 5532 5529 5527 5525 5522 5520 5518 5515 5514 5512 5509 5507 5505 5504 5503 5502 5501 5500 5499 5499 5497 5495 5493 5489 5487 5486 5485 5486 5489 5492 5495 5497 5498 5500 5502 5504 5507 5510
5537 5535 5532 5530 5528 5525 5522 5520 5516 5514 5511 5508 5507 5504 5501 5500 5498 5497 5497 5495 5494 5493 5492 5492 5491 5489 5486 5481 5479 5480 5480 5483 5486 5488 5491 5494 5496 5498 5499 5500 5502 5505
5535 5532 5529 5526 5523 5520 5517 5513 5510 5507 5504 5502 5499 5496 5494 5492 5490 5490 5489 5488 5487 5485 5484 5484 5484 5481 5477 5474 5472 5473 5476 5479 5482 5483 5486 5489 5492 5495 5496 5496 5498 5500
5532 5529 5525 5521 5518 5515 5511 5508 5504 5501 5498 5495 5492 5489 5487 5484 5483 5483 5481 5480 5479 5478 5477 5477 5476 5471 5469 5468 5467 5468 5471 5474 5475 5478 5481 5484 5487 5490 5491 5492 5493 5496
5529 5525 5521 5517 5514 5510 5505 5502 5499 5495 5492 5489 5485 5482 5480 5478 5477 5476 5475 5473 5472 5472 5472 5470 5468 5466 5464 5463 5462 5463 5465 5467 5469 5472 5474 5477 5481 5483 5484 5486 5489 5491
5526 5522 5517 5513 5509 5505 5501 5497 5493 5490 5486 5482 5478 5476 5474 5473 5471 5469 5469 5468 5467 5468 5466 5463 5462 5461 5457 5455 5456 5457 5458 5460 5463 5465 5467 5470 5473 5476 5478 5482 5485 5486
5524 5519 5513 5508 5503 5500 5495 5491 5488 5485 5481 5477 5474 5471 5469 5468 5466 5465 5465 5464 5464 5463 5462 5460 5458 5454 5451 5450 5452 5452 5452 5454 5456 5458 5460 5462 5464 5467 5471 5476 5479 5481